Ciampino, Italy

3:47 PM CET on February 19, 2017 (GMT +0100)
Ciampino

Weather History for LIRA - April, 2013

Change the Weather History Date:

Friday, April 12, 2013

  Actual Average Record
Temperature  
Mean Temperature 60 °F -  
Max Temperature 68 °F 68 °F 73 °F (2007)
Min Temperature 51 °F 48 °F 42 °F (2005)
Degree Days  
Heating Degree Days 6    
Growing Degree Days 10 (Base 50)    
Moisture  
Dew Point 52 °F    
Average Humidity 78    
Maximum Humidity 94    
Minimum Humidity 56    
Precipitation  
Precipitation 0.00 in 0.08 in - ()
Sea Level Pressure  
Sea Level Pressure 29.95 in    
Wind  
Wind Speed 9 mph ()    
Max Wind Speed 23 mph    
Max Gust Speed 34 mph    
Visibility 6.2 miles    
Events      
Averages and records for this station are not official NWS values.
T = Trace of Precipitation, MM = Missing Value Source: Averaged Metar Reports

Daily Weather History Graph

Daily Weather History Graph

Search for Another Location

Airport or City:

Trip Planner

Search our weather history database for the weather conditions in past years. The results will help you decide how hot, cold, wet, or windy it might be!

Date:

Astronomy

Apr. 12, 2013 Rise Set
Actual Time 6:34 AM CEST 7:47 PM CEST
Civil Twilight 6:05 AM CEST 8:16 PM CEST
Nautical Twilight 5:31 AM CEST 8:50 PM CEST
Astronomical Twilight 4:55 AM CEST 9:26 PM CEST
Moon 7:31 AM CEST (4/12) 10:04 PM CEST (4/12)
Length of Visible Light 14h 10m
Length of Day
13h 12m
Waxing Crescent, 4% of the Moon is Illuminated
Apr 12
Waxing Crescent
Apr 18
First Quarter
Apr 25
Full
May 2
Last Quarter
May 10
New

Hourly Weather History & Observations

Time (CEST) Temp. Dew Point Humidity Pressure Visibility Wind Dir Wind Speed Gust Speed Precip Events Conditions
12:15 AM 53.6 °F 46.4 °F 77% 30.01 in 6.2 mi SSE 5.8 mph - N/A   Partly Cloudy
12:45 AM 53.6 °F 46.4 °F 77% 30.01 in 6.2 mi West 1.2 mph - N/A   Partly Cloudy
1:15 AM 53.6 °F 46.4 °F 77% 29.98 in 6.2 mi WNW 3.5 mph - N/A   Partly Cloudy
1:45 AM 51.8 °F 46.4 °F 82% 29.98 in 6.2 mi NW 2.3 mph - N/A   Partly Cloudy
2:15 AM 51.8 °F 48.2 °F 88% 29.98 in 6.2 mi NE 2.3 mph - N/A   Scattered Clouds
2:45 AM 51.8 °F 48.2 °F 88% 29.95 in 6.2 mi ESE 1.2 mph - N/A   Scattered Clouds
3:15 AM 51.8 °F 48.2 °F 88% 29.95 in 6.2 mi East 4.6 mph - N/A   Scattered Clouds
3:45 AM 53.6 °F 50.0 °F 88% 29.95 in 6.2 mi SE 2.3 mph - N/A   Scattered Clouds
4:15 AM 53.6 °F 50.0 °F 88% 29.95 in 6.2 mi SE 4.6 mph - N/A   Partly Cloudy
4:45 AM 55.4 °F 51.8 °F 88% 29.95 in 6.2 mi SSE 9.2 mph - N/A   Partly Cloudy
5:15 AM 55.4 °F 53.6 °F 94% 29.92 in 6.2 mi SSE 12.7 mph - N/A   Partly Cloudy
5:45 AM 55.4 °F 53.6 °F 94% 29.92 in 6.2 mi SSE 13.8 mph - N/A   Partly Cloudy
6:15 AM 55.4 °F 51.8 °F 88% 29.92 in 6.2 mi SSE 12.7 mph - N/A   Partly Cloudy
6:45 AM 55.4 °F 51.8 °F 88% 29.92 in 6.2 mi SE 8.1 mph - N/A   Partly Cloudy
7:15 AM 55.4 °F 51.8 °F 88% 29.92 in 6.2 mi SSE 8.1 mph - N/A   Scattered Clouds
7:45 AM 55.4 °F 51.8 °F 88% 29.95 in 6.2 mi South 11.5 mph - N/A   Partly Cloudy
8:15 AM 57.2 °F 51.8 °F 82% 29.95 in 6.2 mi SSE 16.1 mph - N/A   Partly Cloudy
8:45 AM 57.2 °F 53.6 °F 88% 29.95 in 6.2 mi SSE 16.1 mph - N/A   Scattered Clouds
9:15 AM 59.0 °F 53.6 °F 82% 29.95 in 6.2 mi SE 20.7 mph - N/A   Partly Cloudy
9:45 AM 62.6 °F 53.6 °F 72% 29.95 in 6.2 mi SSE 16.1 mph - N/A   Partly Cloudy
10:15 AM 62.6 °F 51.8 °F 68% 29.95 in 6.2 mi SSE 20.7 mph - N/A   Partly Cloudy
10:45 AM 64.4 °F 51.8 °F 64% 29.95 in 6.2 mi SSE 15.0 mph - N/A   Partly Cloudy
11:15 AM 66.2 °F 50.0 °F 56% 29.95 in 6.2 mi SSE 17.3 mph - N/A   Partly Cloudy
11:45 AM 66.2 °F 51.8 °F 60% 29.95 in 6.2 mi SSE 20.7 mph 33.4 mph N/A   Partly Cloudy
12:15 PM 66.2 °F 51.8 °F 60% 29.95 in 6.2 mi SSE 23.0 mph 34.5 mph N/A   Partly Cloudy
12:45 PM 59.0 °F 44.6 °F 59% 29.95 in 6.2 mi SSE 19.6 mph - N/A   Partly Cloudy
1:15 PM 68.0 °F 51.8 °F 56% 29.95 in 6.2 mi SSE 18.4 mph - N/A   Partly Cloudy
1:45 PM 66.2 °F 50.0 °F 56% 29.95 in 6.2 mi South 16.1 mph - N/A   Scattered Clouds
2:15 PM 68.0 °F 51.8 °F 56% 29.98 in 6.2 mi South 16.1 mph - N/A   Scattered Clouds
2:45 PM 66.2 °F 53.6 °F 64% 29.98 in 6.2 mi South 16.1 mph - N/A   Scattered Clouds
3:15 PM 66.2 °F 53.6 °F 64% 29.98 in 6.2 mi South 16.1 mph - N/A   Scattered Clouds
3:45 PM 64.4 °F 53.6 °F 68% 29.95 in 6.2 mi South 17.3 mph - N/A   Partly Cloudy
4:15 PM 64.4 °F 53.6 °F 68% 29.95 in 6.2 mi South 18.4 mph - N/A   Partly Cloudy
4:45 PM 64.4 °F 53.6 °F 68% 29.95 in 6.2 mi South 18.4 mph - N/A   Partly Cloudy
5:15 PM 64.4 °F 53.6 °F 68% 29.95 in 6.2 mi South 17.3 mph - N/A   Partly Cloudy
5:45 PM 66.2 °F 55.4 °F 68% 29.95 in 6.2 mi South 18.4 mph - N/A   Partly Cloudy
6:15 PM 64.4 °F 55.4 °F 73% 29.92 in 6.2 mi South 17.3 mph - N/A   Partly Cloudy
6:45 PM 62.6 °F 55.4 °F 77% 29.92 in 6.2 mi South 18.4 mph - N/A   Partly Cloudy
7:15 PM 60.8 °F 55.4 °F 82% 29.92 in 6.2 mi South 16.1 mph - N/A   Partly Cloudy
7:45 PM 59.0 °F 55.4 °F 88% 29.92 in 6.2 mi South 16.1 mph - N/A   Scattered Clouds
8:15 PM 59.0 °F 53.6 °F 82% 29.95 in 6.2 mi South 13.8 mph - N/A   Scattered Clouds
8:45 PM 59.0 °F 55.4 °F 88% 29.95 in 6.2 mi South 11.5 mph - N/A   Scattered Clouds
9:15 PM 59.0 °F 55.4 °F 88% 29.98 in 6.2 mi South 9.2 mph - N/A   Partly Cloudy
9:45 PM 59.0 °F 55.4 °F 88% 29.98 in 6.2 mi South 5.8 mph - N/A   Partly Cloudy
10:15 PM 57.2 °F 55.4 °F 94% 29.98 in 6.2 mi South 8.1 mph - N/A   Partly Cloudy
10:45 PM 57.2 °F 53.6 °F 88% 29.98 in 6.2 mi South 5.8 mph - N/A   Partly Cloudy
11:15 PM 57.2 °F 53.6 °F 88% 29.98 in 6.2 mi South 6.9 mph - N/A   Partly Cloudy
11:45 PM 57.2 °F 53.6 °F 88% 29.98 in 6.2 mi South 9.2 mph - N/A   Partly Cloudy